Weather History for Oelwein, IA

Change the Weather History Date:

Sunday, March 23, 2014

  Actual Average Record
Temperature  
Mean Temperature 19 °F -  
Max Temperature 24 °F 46 °F 71 °F (1963)
Min Temperature 14 °F 25 °F 1 °F (1974)
Degree Days  
Heating Degree Days 46    
Moisture  
Dew Point 10 °F    
Average Humidity 75    
Maximum Humidity 100    
Minimum Humidity 68    
Precipitation  
Precipitation 0.00 in - - ()
Sea Level Pressure  
Sea Level Pressure 30.44 in    
Wind  
Wind Speed 12 mph (NNW)    
Max Wind Speed 20 mph    
Max Gust Speed 25 mph    
Visibility 10 miles    
Events      
Averages and records for this station are not official NWS values.
T = Trace of Precipitation, MM = Missing Value Source: NWS Daily Summary

Daily Weather History Graph

Daily Weather History Graph

Search for Another Location

Airport:

Trip Planner

Search our weather history database for the weather conditions in past years. The results will help you decide how hot, cold, wet, or windy it might be!

Date:

Astronomy

Mar. 23, 2014 Rise Set
Actual Time 7:05 AM CDT 7:23 PM CDT
Civil Twilight 6:37 AM CDT 7:51 PM CDT
Nautical Twilight 6:04 AM CDT 8:25 PM CDT
Astronomical Twilight 5:30 AM CDT 8:59 PM CDT
Moon 1:47 AM CDT (3/23) 11:41 AM CDT (3/23)
Length of Visible Light 13h 14m
Length of Day
12h 17m
Waning Gibbous, 54% of the Moon is Illuminated
Mar 23
Waning Gibbous
Mar 23
Last Quarter
Mar 30
New
Apr 7
First Quarter
Apr 15
Full

Hourly Weather History & Observations

Time (CDT) Temp. Windchill Dew Point Humidity Pressure Visibility Wind Dir Wind Speed Gust Speed Precip Events Conditions
12:15 AM 19.4 °F 3.6 °F 10.4 °F 68% 30.45 in 10.0 mi North 19.6 mph - N/A   Mostly Cloudy
12:35 AM 19.4 °F 6.0 °F 10.4 °F 68% 30.45 in 10.0 mi NNW 13.8 mph 25.3 mph N/A   Partly Cloudy
12:55 AM 19.4 °F 6.0 °F 10.4 °F 68% 30.45 in 10.0 mi NNW 13.8 mph 21.9 mph N/A   Scattered Clouds
1:15 AM 17.6 °F 2.7 °F 8.6 °F 68% 30.45 in 10.0 mi North 16.1 mph - N/A   Overcast
1:35 AM 17.6 °F 3.7 °F 8.6 °F 68% 30.46 in 10.0 mi North 13.8 mph - N/A   Mostly Cloudy
1:55 AM 17.6 °F 3.7 °F 8.6 °F 68% 30.46 in 10.0 mi North 13.8 mph - N/A   Partly Cloudy
2:15 AM 17.6 °F 3.2 °F 8.6 °F 68% 30.47 in 10.0 mi North 15.0 mph - N/A   Clear
2:35 AM 17.6 °F 3.2 °F 8.6 °F 68% 30.47 in 10.0 mi NNW 15.0 mph 21.9 mph N/A   Partly Cloudy
2:55 AM 15.8 °F 0.9 °F 6.8 °F 68% 30.47 in 10.0 mi North 15.0 mph - N/A   Scattered Clouds
3:15 AM 15.8 °F 2.1 °F 8.6 °F 73% 30.47 in 10.0 mi North 12.7 mph - N/A   Scattered Clouds
3:35 AM 15.8 °F 0.3 °F 6.8 °F 68% 30.47 in 10.0 mi North 16.1 mph - N/A   Mostly Cloudy
3:55 AM 15.8 °F 0.3 °F 6.8 °F 68% 30.48 in 10.0 mi North 16.1 mph - N/A   Partly Cloudy
4:15 AM 15.8 °F 2.1 °F 6.8 °F 68% 30.48 in 10.0 mi North 12.7 mph 18.4 mph N/A   Clear
4:35 AM 15.8 °F 2.1 °F 6.8 °F 68% 30.48 in 10.0 mi North 12.7 mph - N/A   Clear
4:55 AM 15.8 °F 2.1 °F 6.8 °F 68% 30.48 in - North 12.7 mph - N/A   Scattered Clouds
5:15 AM 14.0 °F -0.2 °F 6.8 °F 73% 30.48 in 10.0 mi North 12.7 mph - N/A   Partly Cloudy
5:35 AM 14.0 °F 0.5 °F 6.8 °F 73% 30.48 in 10.0 mi North 11.5 mph - N/A   Clear
5:55 AM 14.0 °F 0.5 °F 6.8 °F 73% 30.48 in 10.0 mi North 11.5 mph - N/A   Clear
6:15 AM 14.0 °F 2.0 °F 6.8 °F 73% 30.48 in 10.0 mi North 9.2 mph - N/A   Clear
6:35 AM 14.0 °F 2.9 °F 6.8 °F 73% 30.49 in 10.0 mi North 8.1 mph - N/A   Clear
6:55 AM 14.0 °F 2.0 °F 8.6 °F 79% 30.49 in 10.0 mi North 9.2 mph - N/A   Clear
7:15 AM 14.0 °F 2.0 °F 6.8 °F 73% 30.49 in 10.0 mi North 9.2 mph - N/A   Clear
7:35 AM 14.0 °F 2.0 °F 8.6 °F 79% 30.49 in 10.0 mi North 9.2 mph - N/A   Clear
7:55 AM 14.0 °F 2.0 °F 12.2 °F 93% 30.49 in 10.0 mi North 9.2 mph - N/A   Clear
8:15 AM 14.0 °F 0.5 °F 12.2 °F 93% 30.50 in 10.0 mi North 11.5 mph - N/A   Clear
8:35 AM 15.8 °F 5.1 °F 15.8 °F 100% 30.49 in 10.0 mi North 8.1 mph - N/A   Clear
8:55 AM 15.8 °F 5.1 °F 15.8 °F 100% 30.49 in 10.0 mi North 8.1 mph - N/A   Clear
9:15 AM 15.8 °F 5.1 °F 15.8 °F 100% 30.49 in 10.0 mi North 8.1 mph - N/A   Clear
9:35 AM 17.6 °F 6.4 °F - N/A% 30.50 in 10.0 mi NNW 9.2 mph - N/A   Clear
9:55 AM 17.6 °F 8.2 °F - N/A% 30.49 in 10.0 mi Variable 6.9 mph - N/A   Clear
10:15 AM 17.6 °F 7.3 °F - N/A% 30.49 in 10.0 mi NW 8.1 mph 15.0 mph N/A   Partly Cloudy
10:35 AM 19.4 °F 11.5 °F - N/A% 30.49 in 10.0 mi Variable 5.8 mph 13.8 mph N/A   Scattered Clouds
10:55 AM 19.4 °F 7.9 °F - N/A% 30.49 in 10.0 mi NNW 10.4 mph - N/A   Scattered Clouds
11:15 AM 19.4 °F 7.2 °F - N/A% 30.48 in 10.0 mi NNW 11.5 mph - N/A   Scattered Clouds
11:35 AM 21.2 °F 10.9 °F - N/A% 30.48 in 10.0 mi NW 9.2 mph - N/A   Partly Cloudy
11:55 AM 21.2 °F 8.9 °F - N/A% 30.48 in 10.0 mi NW 12.7 mph - N/A   Mostly Cloudy
12:15 PM 21.2 °F 10.9 °F - N/A% 30.48 in 10.0 mi NW 9.2 mph 15.0 mph N/A   Mostly Cloudy
12:35 PM 21.2 °F 10.1 °F - N/A% 30.47 in 10.0 mi WNW 10.4 mph 17.3 mph N/A   Mostly Cloudy
12:55 PM 23.0 °F 13.9 °F - N/A% 30.46 in 10.0 mi North 8.1 mph 17.3 mph N/A   Scattered Clouds
1:15 PM 23.0 °F 12.4 °F - N/A% 30.46 in 10.0 mi NNW 10.4 mph 17.3 mph N/A   Partly Cloudy
1:35 PM 23.0 °F 10.6 °F - N/A% 30.45 in 10.0 mi NW 13.8 mph - N/A   Partly Cloudy
1:55 PM 23.0 °F 12.4 °F - N/A% 30.44 in 10.0 mi NW 10.4 mph 19.6 mph N/A   Clear
2:15 PM 23.0 °F 10.6 °F - N/A% 30.44 in 10.0 mi NNW 13.8 mph - N/A   Partly Cloudy
2:35 PM 24.8 °F 14.0 °F - N/A% 30.44 in 10.0 mi NW 11.5 mph 18.4 mph N/A   Mostly Cloudy
2:55 PM 24.8 °F 12.9 °F - N/A% 30.43 in 10.0 mi NW 13.8 mph - N/A   Mostly Cloudy
3:15 PM 23.0 °F 13.1 °F - N/A% 30.42 in 10.0 mi NNW 9.2 mph 19.6 mph N/A   Mostly Cloudy
3:35 PM 24.8 °F 13.4 °F - N/A% 30.42 in 10.0 mi NW 12.7 mph - N/A   Mostly Cloudy
3:55 PM 23.0 °F 10.6 °F - N/A% 30.42 in 10.0 mi NNW 13.8 mph - N/A   Mostly Cloudy
4:15 PM 23.0 °F 10.6 °F - N/A% 30.41 in 10.0 mi NW 13.8 mph - N/A   Scattered Clouds
4:35 PM 24.8 °F 13.4 °F - N/A% 30.41 in 10.0 mi NW 12.7 mph - N/A   Mostly Cloudy
4:55 PM 23.0 °F 12.4 °F - N/A% 30.40 in 10.0 mi WNW 10.4 mph - N/A   Mostly Cloudy
5:15 PM 24.8 °F 15.3 °F - N/A% 30.40 in 10.0 mi NNW 9.2 mph 16.1 mph N/A   Overcast
5:35 PM 24.8 °F 14.0 °F - N/A% 30.40 in 10.0 mi NW 11.5 mph - N/A   Overcast
5:55 PM 23.0 °F 12.4 °F - N/A% 30.39 in 10.0 mi NNW 10.4 mph - N/A   Overcast
6:15 PM 24.8 °F 16.1 °F - N/A% 30.38 in 10.0 mi NW 8.1 mph - N/A   Mostly Cloudy
6:35 PM 23.0 °F 12.4 °F - N/A% 30.38 in 10.0 mi North 10.4 mph - N/A   Mostly Cloudy
6:55 PM 23.0 °F 12.4 °F - N/A% 30.37 in 10.0 mi NNW 10.4 mph - N/A   Scattered Clouds
7:15 PM 23.0 °F 14.7 °F - N/A% 30.37 in 10.0 mi North 6.9 mph - N/A   Partly Cloudy
7:35 PM 21.2 °F 11.7 °F - N/A% 30.37 in 10.0 mi North 8.1 mph - N/A   Clear
7:55 PM 21.2 °F 11.7 °F - N/A% 30.37 in 10.0 mi North 8.1 mph - N/A   Clear
8:15 PM 21.2 °F 12.6 °F - N/A% 30.37 in 10.0 mi North 6.9 mph - N/A   Clear
8:35 PM 21.2 °F 13.6 °F - N/A% 30.37 in 10.0 mi NNE 5.8 mph - N/A   Clear
8:55 PM 19.4 °F 12.8 °F 14.0 °F 80% 30.37 in 10.0 mi NNE 4.6 mph - N/A   Clear
9:15 PM 19.4 °F 12.8 °F 12.2 °F 74% 30.37 in 10.0 mi NNE 4.6 mph - N/A   Clear
9:35 PM 19.4 °F 11.5 °F 12.2 °F 74% 30.37 in 10.0 mi NNE 5.8 mph - N/A   Clear
9:55 PM 19.4 °F - 12.2 °F 74% 30.38 in 10.0 mi Calm Calm - N/A   Scattered Clouds
10:15 PM 19.4 °F - 14.0 °F 80% 30.38 in 10.0 mi Calm Calm - N/A   Mostly Cloudy
10:35 PM 21.2 °F - 14.0 °F 74% 30.38 in 10.0 mi Calm Calm - N/A   Mostly Cloudy
10:55 PM 19.4 °F - 14.0 °F 80% 30.37 in 10.0 mi Calm Calm - N/A   Overcast
11:15 PM 21.2 °F - 12.2 °F 68% 30.37 in 10.0 mi Calm Calm - N/A   Overcast
11:35 PM 21.2 °F 14.9 °F 14.0 °F 74% 30.37 in 10.0 mi SE 4.6 mph - N/A   Overcast
11:55 PM 21.2 °F 14.9 °F 14.0 °F 74% 30.37 in 10.0 mi SE 4.6 mph - N/A   Overcast